Location: Hac?musa Deresi
(39.1694°N, 32.2508°E)
Time: 23:28:23
(UTC+00:00)

USA 267 - Pass Details

Date: 22 April 2026
Orbit: 1101 x 1107 km, 123.0° (Epoch: 10 January)

Event Time Altitude Azimuth Distance (km) Brightness Sun altitude
Rises 22:55:18 0° 53° (NE) 3,931 6.9 -36.1°
Reaches altitude 10° 22:58:02 10° 62° (ENE) 2,969 6.0 -36.0°
Enters shadow 23:02:10 31° 95° (E) 1,836 4.5 -35.7°
